Location: *
(48.8780°N, 19.2358°E)
Time: 10:20:44
(UTC+00:00)

STARLINK-74 - Pass Details

Date: 18 October 2019
Orbit: 548 x 551 km, 53.0° (Epoch: 20 November)

Event Time Altitude Azimuth Distance (km) Brightness Sun altitude
Rises 16:34:41 0° 253° (WSW) 2,711 9.2 -8.3°
Reaches altitude 10° 16:36:56 10° 256° (WSW) 1,820 7.9 -8.7°
Maximum altitude 16:41:03 69° 340° (NNW) 591 3.8 -9.4°
Enters shadow 16:44:53 12° 64° (ENE) 1,706 5.6 -10.0°
